Battle Creek, MI

12:23 PM EDT on October 23, 2019 (GMT -0400)
Kellogg

Weather History for KBTL - July, 2019

Change the Weather History Date:

Tuesday, July 30, 2019

  Actual Average Record
Temperature  
Mean Temperature 73 °F -  
Max Temperature 85 °F - 96 °F (1999)
Min Temperature 60 °F - 51 °F (1997)
Cooling Degree Days 8    
Month to date cooling degree days 330  
Year to date cooling degree days 471  
Since 1 June cooling degree days 455  
Growing Degree Days 23 (Base 50)    
Moisture  
Dew Point 66 °F    
Average Humidity 74    
Maximum Humidity 100    
Minimum Humidity 47    
Precipitation  
Precipitation 0.00 in - 1.01 in (2000)
Month to date precipitation 2.06  
Year to date precipitation 20.35  
Sea Level Pressure  
Sea Level Pressure 29.96 in    
Wind  
Wind Speed 7 mph (WSW)    
Max Wind Speed 17 mph    
Max Gust Speed 24 mph    
Visibility 6 miles    
Events Fog    
T = Trace of Precipitation, MM = Missing Value Source: NWS Daily Summary

Daily Weather History Graph

Daily Weather History Graph

Search for Another Location

Airport or City:

Astronomy

Jul. 30, 2019 Rise Set
Actual Time 6:31 AM EDT 9:02 PM EDT
Civil Twilight 5:59 AM EDT 9:34 PM EDT
Nautical Twilight 5:19 AM EDT 10:14 PM EDT
Astronomical Twilight 4:34 AM EDT 10:59 PM EDT
Moon 4:37 AM EDT (7/30) 8:08 PM EDT (7/30)
Length of Visible Light 15h 35m
Length of Day
14h 31m
Waning Crescent, 3% of the Moon is Illuminated
Jul 30
Waning Crescent
Jul 31
New
Aug 7
First Quarter
Aug 15
Full
Aug 23
Last Quarter

Hourly Weather History & Observations

Time (EDT) Temp. Heat Index Dew Point Humidity Pressure Visibility Wind Dir Wind Speed Gust Speed Precip Events Conditions
12:12 AM 70.0 °F - 66.9 °F 90% 29.91 in 10.0 mi WSW 3.5 mph - N/A   Scattered Clouds
12:17 AM 69.1 °F - 66.9 °F 93% 29.91 in 10.0 mi SW 4.6 mph - N/A   Mostly Cloudy
12:31 AM 70.0 °F - 69.1 °F 97% 29.92 in 8.0 mi SW 5.8 mph - N/A   Overcast
12:53 AM 70.0 °F - 70.0 °F 100% 29.91 in 7.0 mi SW 6.9 mph - N/A   Overcast
1:51 AM 69.8 °F - 69.8 °F 100% 29.92 in 1.8 mi SW 5.8 mph - N/A   Overcast
1:53 AM 70.0 °F - 70.0 °F 100% 29.91 in 1.5 mi SW 5.8 mph - N/A   Overcast
2:21 AM 70.0 °F - 70.0 °F 100% 29.92 in 0.8 mi SW 6.9 mph - N/A   Mist
2:53 AM 70.0 °F - 70.0 °F 100% 29.91 in 0.5 mi SW 4.6 mph - N/A Fog Fog
3:36 AM 70.0 °F - 70.0 °F 100% 29.93 in 1.0 mi SW 4.6 mph - N/A   Mist
3:53 AM 70.0 °F - 70.0 °F 100% 29.91 in 1.8 mi WSW 4.6 mph - N/A   Overcast
4:02 AM 70.0 °F - 70.0 °F 100% 29.93 in 2.5 mi WSW 4.6 mph - N/A   Overcast
4:11 AM 70.0 °F - 69.1 °F 97% 29.93 in 4.0 mi WSW 5.8 mph - N/A   Overcast
4:41 AM 70.0 °F - 70.0 °F 100% 29.93 in 2.0 mi WSW 4.6 mph - N/A   Overcast
4:53 AM 70.0 °F - 70.0 °F 100% 29.91 in 1.8 mi WSW 3.5 mph - N/A   Overcast
5:08 AM 70.0 °F - 70.0 °F 100% 29.93 in 2.5 mi WSW 4.6 mph - N/A   Overcast
5:25 AM 70.0 °F - 70.0 °F 100% 29.94 in 4.0 mi WSW 4.6 mph - N/A   Overcast
5:53 AM 69.1 °F - 69.1 °F 100% 29.92 in 6.0 mi WSW 4.6 mph - N/A   Overcast
6:30 AM 69.1 °F - 69.1 °F 100% 29.95 in 1.8 mi WSW 4.6 mph - N/A   Overcast
6:53 AM 69.1 °F - 69.1 °F 100% 29.94 in 0.5 mi WSW 3.5 mph - N/A Fog Fog
6:56 AM 69.1 °F - 69.1 °F 100% 29.96 in 2.0 mi WSW 4.6 mph - N/A   Overcast
7:09 AM 69.1 °F - 68.0 °F 96% 29.96 in 1.0 mi WSW 4.6 mph - N/A   Overcast
7:53 AM 69.1 °F - 68.0 °F 96% 29.96 in 1.0 mi West 4.6 mph - N/A   Overcast
8:02 AM 69.1 °F - 68.0 °F 96% 29.98 in 0.8 mi West 3.5 mph - N/A   Overcast
8:30 AM 69.1 °F - 68.0 °F 96% 29.99 in 0.8 mi West 3.5 mph - N/A   Mostly Cloudy
8:53 AM 71.1 °F - 66.9 °F 87% 29.97 in 6.0 mi West 3.5 mph - N/A   Mostly Cloudy
9:53 AM 75.0 °F - 66.9 °F 76% 29.98 in 10.0 mi Calm Calm - N/A   Clear
10:53 AM 78.1 °F - 64.9 °F 64% 29.98 in 10.0 mi Variable 4.6 mph - N/A   Clear
11:53 AM 82.0 °F 83.1 °F 63.0 °F 52% 29.99 in 10.0 mi Variable 4.6 mph - N/A   Partly Cloudy
12:53 PM 80.1 °F 81.5 °F 63.0 °F 56% 29.99 in 10.0 mi WNW 5.8 mph - N/A   Mostly Cloudy
1:53 PM 82.9 °F 83.2 °F 60.1 °F 46% 29.98 in 10.0 mi West 13.8 mph - N/A   Clear
2:53 PM 82.9 °F 83.7 °F 62.1 °F 49% 29.97 in 10.0 mi North - - N/A   Scattered Clouds
3:53 PM 82.9 °F 83.7 °F 62.1 °F 49% 29.97 in 10.0 mi West 12.7 mph 23.0 mph N/A   Mostly Cloudy
4:53 PM 82.0 °F 82.7 °F 61.0 °F 49% 29.97 in 10.0 mi WNW 12.7 mph - N/A   Scattered Clouds
5:53 PM 81.0 °F 81.7 °F 61.0 °F 50% 29.98 in 10.0 mi WNW 12.7 mph 23.0 mph N/A   Partly Cloudy
6:53 PM 78.1 °F - 60.1 °F 54% 29.99 in 10.0 mi WNW 12.7 mph - N/A   Clear
7:53 PM 75.0 °F - 59.0 °F 57% 30.01 in 10.0 mi WNW 11.5 mph - N/A   Clear
8:53 PM 71.1 °F - 57.0 °F 61% 30.03 in 10.0 mi West 6.9 mph - N/A   Clear
9:53 PM 66.9 °F - 55.9 °F 68% 30.05 in 10.0 mi WNW 9.2 mph - N/A   Clear
10:53 PM 64.0 °F - 54.0 °F 70% 30.06 in 10.0 mi WNW 9.2 mph - N/A   Clear
11:53 PM 61.0 °F - 54.0 °F 78% 30.07 in 10.0 mi West 5.8 mph - N/A   Clear